Terminal Aerodrome Forecast
Issued by NWS Jackson, KY

Home | Current Version | Previous Version | Text Only | Print | Product List | Glossary On
Versions: 1 2 3 4 5 6 7 8 9 10 11 12 13 14 15 16 17 18 19 20 21 22 23 24 25 26 27 28 29 30 31 32 33 34
000
FTUS43 KJKL 041143 AAB
TAFJKL
TAF AMD
KJKL 041143Z 0412/0512 36004KT P6SM -RA SCT006 SCT014 OVC035
     FM041600 30006KT 3SM RA OVC010
     FM050200 22008KT 4SM -RAPL BR OVC004
     FM050800 36008KT 1/4SM +SN OVC002=

USA.gov is the U.S. government's official web portal to all federal, state and local government web resources and services.